Вернуться в каталог

SL-12 DEB

АктивенHEO
NORAD 41699·DEBRIS·🇷🇺 Russia

Запущен Mar 1, 2010 с Baikonur Cosmodrome

Loading…

Ближайшие Пролёты (ближайшие 24 часа)

TLE

СвежийSource: Space-Track

Эпоха: Sep 14, 2026, 13:21 UTC

1 41699U 10007R   26257.55655542  .00000057  00000-0  18259-3 0  9996
2 41699  64.8901 105.5799 5493416 303.1401  15.6585  4.37312384191735

Отслеживайте SL-12 DEB в реальном времени с AllMySat

Download on the App Store